SL-24 DEB, 36510

Orbit data source: Space-Track

SL-24 DEB, 36510 is space debris in LEO originally from a launch on Thu, 08 Apr 2010 UTC launched from the Tyuratam Missile And Space Complex (TTMTR). Debris objects in space refer to the collection of defunct objects orbiting the Earth. Examples of debris include non-operational satellites, rocket bodies, and fragments generated from explosions, collisions, or faulty payload assembly.

Loading next visibility...
Identifier
36510, 2010-013C
Orbit
LEO
Country
Flag of CISCIS
Related business
Manufacturer
Yuzhnoe
Mission
Spacecraft
Bus & Motor
Unknown
Mass
~50 kg wet, ~50 kg dry
Launch date (UTC)
2010-04-08 (15 years ago)
Launch vehicle
Unknown
Launch site
Tyuratam Missile And Space Complex (TTMTR)
Object type
Payload
Rocket body
Debris
Shape & HBR
Cone, 1.3 m
Radar Cross Section
3.971 m², Large (>1 m²)

Expand to show TLE details & history
Last TLE update: 22 hours ago

TLE from 22 hours ago
0 SL-24 DEB
1 36510U 10013C   25259.97024431  .00002994  00000-0  45954-3 0  9997
2 36510  92.0201 236.6598 0016910 261.0703  98.8602 14.73502220824234
Epoch: 2025-09-16T23:17Z
TLE epoch observation values (Epoch: 2025-09-16T23:17:09.108Z)
Latitude
-0.00002°
Longitude
-108.78106°
Altitude
654.884 km
Speed
7.529 km/s
True Right ascension
15h 46m 38s
True Declination
0° 00' 00"
Sunlit
Object was in daylight at epoch
Visualization orbit readout
Latitude
Unknown
Longitude
Unknown
Altitude
Unknown
Speed
Unknown
Apparent Right ascension
Unknown
Apparent Declination
Unknown
Sunlit
N/A
Visualization observer readout
Local Sidereal Time
14:10:34
Azimuth
Unknown
Elevation
Unknown
Doppler factor
Unknown
Orbital elements
Apogee altitude
658.673 km
Perigee altitude
634.914 km
Semi-major axis
7,024.931 km
Eccentricity
0.00169
Inclination
92.0201°
RAAN
236.6598°
Arg. of periapsis
261.0703°
True anomaly
99.0516°
Mean anomaly
98.8602°
Eccentric anomaly
98.95591°
Mean motion
3.68621 °/min
Orbital period
97.66 mins
BSTAR
0.00045954
Loading maneuver chart data...
Computing Atmospheric mass density...
Loading historical data...
Loading historical data...
Loading historical data...
Loading historical data...
Loading historical data...
Loading historical data...
Loading historical data...
Other satellites on launch #13 in the year 2010 (2010-04-08 UTC)

Documentation

Showing up to 5 results
|